Time,TemperatureF,DewpointF,PressureIn,WindDirection,WindDirectionDegrees,WindSpeedMPH,WindSpeedGustMPH,Humidity,HourlyPrecipIn,Conditions,Clouds,dailyrainin,SoftwareType,DateUTC
2013-07-24 00:01:00,68.2,67.3,29.89,SSE,157,0.0,0.0,97,0.00,,,0.00,Wunderground v.1.13,2013-07-24 04:01:00,
2013-07-24 00:02:00,68.2,67.3,29.89,SSE,157,0.0,0.0,97,0.00,,,0.00,Wunderground v.1.13,2013-07-24 04:02:00,
2013-07-24 00:07:00,68.2,67.3,29.89,SSE,157,0.0,0.0,97,0.00,,,0.00,Wunderground v.1.13,2013-07-24 04:07:00,
2013-07-24 00:08:00,68.2,67.3,29.89,SSE,157,0.0,0.0,97,0.00,,,0.00,Wunderground v.1.13,2013-07-24 04:08:00,
2013-07-24 00:14:00,68.1,67.2,29.89,SSE,157,0.0,0.0,97,0.00,,,0.00,Wunderground v.1.13,2013-07-24 04:14:00,
2013-07-24 00:20:00,68.1,67.2,29.89,SSE,157,0.0,0.0,97,0.00,,,0.00,Wunderground v.1.13,2013-07-24 04:20:00,
2013-07-24 00:25:00,68.1,67.2,29.89,SSE,157,0.0,0.0,97,0.00,,,0.00,Wunderground v.1.13,2013-07-24 04:25:00,
2013-07-24 00:31:00,68.4,67.8,29.89,SSE,157,0.0,0.0,98,0.00,,,0.00,Wunderground v.1.13,2013-07-24 04:31:00,
2013-07-24 00:37:00,68.5,67.9,29.88,SSE,157,0.0,0.0,98,0.00,,,0.00,Wunderground v.1.13,2013-07-24 04:37:00,
2013-07-24 00:42:00,68.5,67.9,29.88,SSE,157,0.0,0.0,98,0.00,,,0.00,Wunderground v.1.13,2013-07-24 04:42:00,
2013-07-24 00:48:00,68.4,67.8,29.88,SSE,157,0.0,0.0,98,0.00,,,0.00,Wunderground v.1.13,2013-07-24 04:48:00,
2013-07-24 00:54:00,68.4,67.5,29.88,SSE,157,0.0,0.0,97,0.00,,,0.00,Wunderground v.1.13,2013-07-24 04:54:00,
2013-07-24 00:59:00,68.4,67.8,29.89,SSE,157,0.0,0.0,98,0.00,,,0.00,Wunderground v.1.13,2013-07-24 04:59:00,
2013-07-24 01:05:00,68.4,67.8,29.89,SSE,157,0.0,0.0,98,0.00,,,0.00,Wunderground v.1.13,2013-07-24 05:05:00,
2013-07-24 01:10:00,68.3,67.7,29.88,SSE,157,0.0,0.0,98,0.00,,,0.00,Wunderground v.1.13,2013-07-24 05:10:00,
2013-07-24 01:16:00,68.3,67.7,29.87,SSE,157,0.0,0.0,98,0.00,,,0.00,Wunderground v.1.13,2013-07-24 05:16:00,
2013-07-24 01:21:00,68.3,67.7,29.88,SSE,157,0.0,0.0,98,0.00,,,0.00,Wunderground v.1.13,2013-07-24 05:21:00,
2013-07-24 01:27:00,68.3,67.7,29.88,SSE,157,0.0,0.0,98,0.00,,,0.00,Wunderground v.1.13,2013-07-24 05:27:00,
2013-07-24 01:33:00,68.4,67.8,29.88,SSE,157,0.0,0.0,98,0.00,,,0.00,Wunderground v.1.13,2013-07-24 05:33:00,
2013-07-24 01:39:00,68.5,67.9,29.87,SSE,157,0.0,0.0,98,0.00,,,0.00,Wunderground v.1.13,2013-07-24 05:39:00,
2013-07-24 01:44:00,68.5,67.9,29.87,SSE,157,0.0,0.0,98,0.00,,,0.00,Wunderground v.1.13,2013-07-24 05:44:00,
2013-07-24 01:50:00,68.5,67.9,29.87,SSE,157,0.0,0.0,98,0.00,,,0.00,Wunderground v.1.13,2013-07-24 05:50:00,
2013-07-24 01:55:00,68.5,67.9,29.87,SSE,157,0.0,0.0,98,0.00,,,0.00,Wunderground v.1.13,2013-07-24 05:55:00,
2013-07-24 02:01:00,68.6,68.0,29.87,SSE,157,0.0,0.0,98,0.00,,,0.00,Wunderground v.1.13,2013-07-24 06:01:00,
2013-07-24 02:07:00,68.6,68.0,29.87,SSE,157,0.0,0.0,98,0.00,,,0.00,Wunderground v.1.13,2013-07-24 06:07:00,
2013-07-24 02:13:00,68.7,68.1,29.86,SSE,157,0.0,0.0,98,0.00,,,0.00,Wunderground v.1.13,2013-07-24 06:13:00,
2013-07-24 02:18:00,68.8,68.2,29.86,SSE,157,0.0,0.0,98,0.00,,,0.00,Wunderground v.1.13,2013-07-24 06:18:00,
2013-07-24 02:24:00,68.9,68.3,29.86,SSE,157,0.0,0.0,98,0.00,,,0.00,Wunderground v.1.13,2013-07-24 06:24:00,
2013-07-24 02:30:00,69.0,68.4,29.86,SSE,157,0.0,0.0,98,0.00,,,0.00,Wunderground v.1.13,2013-07-24 06:30:00,
2013-07-24 02:35:00,69.1,68.5,29.86,SSE,157,0.0,0.0,98,0.00,,,0.00,Wunderground v.1.13,2013-07-24 06:35:00,
2013-07-24 02:40:00,69.2,68.6,29.85,SSE,157,0.0,0.0,98,0.00,,,0.00,Wunderground v.1.13,2013-07-24 06:40:00,
2013-07-24 02:46:00,69.3,68.7,29.84,SSE,157,0.0,0.0,98,0.00,,,0.00,Wunderground v.1.13,2013-07-24 06:46:00,
2013-07-24 02:51:00,69.4,68.8,29.85,SSE,157,0.0,0.0,98,0.00,,,0.00,Wunderground v.1.13,2013-07-24 06:51:00,
2013-07-24 02:57:00,69.4,68.8,29.85,SSE,157,0.0,0.0,98,0.00,,,0.00,Wunderground v.1.13,2013-07-24 06:57:00,
2013-07-24 03:03:00,69.6,69.0,29.85,SSE,157,0.0,0.0,98,0.00,,,0.00,Wunderground v.1.13,2013-07-24 07:03:00,
2013-07-24 03:08:00,69.7,69.1,29.85,SSE,157,0.0,0.0,98,0.00,,,0.00,Wunderground v.1.13,2013-07-24 07:08:00,
2013-07-24 03:14:00,69.8,69.2,29.85,SSE,157,0.0,0.0,98,0.00,,,0.00,Wunderground v.1.13,2013-07-24 07:14:00,
2013-07-24 03:19:00,70.2,69.9,29.84,SSE,157,0.0,2.0,99,0.00,,,0.00,Wunderground v.1.13,2013-07-24 07:19:00,
2013-07-24 03:25:00,70.4,70.1,29.84,SSE,157,0.0,2.0,99,0.00,,,0.00,Wunderground v.1.13,2013-07-24 07:25:00,
2013-07-24 03:30:00,70.8,70.5,29.84,SSE,158,1.0,2.0,99,0.00,,,0.00,Wunderground v.1.13,2013-07-24 07:30:00,
2013-07-24 03:35:00,71.2,70.9,29.84,SSE,163,1.0,1.0,99,0.00,,,0.00,Wunderground v.1.13,2013-07-24 07:35:00,
2013-07-24 03:41:00,71.4,71.1,29.84,SSE,163,1.0,2.0,99,0.00,,,0.00,Wunderground v.1.13,2013-07-24 07:41:00,
2013-07-24 03:47:00,71.7,71.4,29.84,South,178,1.0,2.0,99,0.00,,,0.00,Wunderground v.1.13,2013-07-24 07:47:00,
2013-07-24 03:52:00,71.9,71.6,29.84,SSW,199,2.0,4.0,99,0.00,,,0.00,Wunderground v.1.13,2013-07-24 07:52:00,
2013-07-24 03:57:00,72.1,71.8,29.83,West,265,3.0,5.0,99,0.00,,,0.00,Wunderground v.1.13,2013-07-24 07:57:00,
2013-07-24 04:03:00,72.1,71.8,29.83,West,265,3.0,3.0,99,0.00,,,0.00,Wunderground v.1.13,2013-07-24 08:03:00,
2013-07-24 04:09:00,72.2,71.9,29.83,WSW,258,3.0,7.0,99,0.00,,,0.00,Wunderground v.1.13,2013-07-24 08:09:00,
2013-07-24 04:14:00,72.2,71.9,29.82,West,265,4.0,7.0,99,0.00,,,0.00,Wunderground v.1.13,2013-07-24 08:14:00,
2013-07-24 04:19:00,72.2,71.9,29.82,West,265,3.0,4.0,99,0.00,,,0.00,Wunderground v.1.13,2013-07-24 08:19:00,
2013-07-24 04:25:00,72.2,71.9,29.82,West,265,2.0,5.0,99,0.00,,,0.00,Wunderground v.1.13,2013-07-24 08:25:00,
2013-07-24 04:31:00,72.2,71.9,29.82,West,263,2.0,2.0,99,0.00,,,0.00,Wunderground v.1.13,2013-07-24 08:31:00,
2013-07-24 04:37:00,72.2,71.9,29.83,West,263,1.0,1.0,99,0.00,,,0.00,Wunderground v.1.13,2013-07-24 08:37:00,
2013-07-24 04:42:00,72.2,71.9,29.83,West,263,1.0,4.0,99,0.00,,,0.00,Wunderground v.1.13,2013-07-24 08:42:00,
2013-07-24 04:47:00,72.2,71.9,29.83,West,263,1.0,3.0,99,0.00,,,0.00,Wunderground v.1.13,2013-07-24 08:47:00,
2013-07-24 04:52:00,72.2,71.9,29.84,West,263,1.0,2.0,99,0.00,,,0.00,Wunderground v.1.13,2013-07-24 08:52:00,
2013-07-24 04:57:00,72.2,71.9,29.84,West,263,0.0,3.0,99,0.00,,,0.00,Wunderground v.1.13,2013-07-24 08:57:00,
2013-07-24 05:03:00,72.2,71.9,29.84,West,260,2.0,4.0,99,0.00,,,0.00,Wunderground v.1.13,2013-07-24 09:03:00,
2013-07-24 05:08:00,72.2,71.9,29.84,West,269,3.0,7.0,99,0.00,,,0.00,Wunderground v.1.13,2013-07-24 09:08:00,
2013-07-24 05:13:00,72.2,71.9,29.84,West,271,3.0,6.0,99,0.00,,,0.00,Wunderground v.1.13,2013-07-24 09:13:00,
2013-07-24 05:19:00,72.2,71.9,29.84,West,271,2.0,6.0,99,0.00,,,0.00,Wunderground v.1.13,2013-07-24 09:19:00,
2013-07-24 05:24:00,72.2,71.9,29.85,West,271,3.0,4.0,99,0.00,,,0.00,Wunderground v.1.13,2013-07-24 09:24:00,
2013-07-24 05:30:00,72.2,71.9,29.85,West,271,3.0,3.0,99,0.00,,,0.00,Wunderground v.1.13,2013-07-24 09:30:00,
2013-07-24 05:35:00,72.2,71.9,29.85,West,273,2.0,2.0,99,0.00,,,0.00,Wunderground v.1.13,2013-07-24 09:35:00,
2013-07-24 05:41:00,72.1,71.8,29.85,West,272,3.0,3.0,99,0.00,,,0.00,Wunderground v.1.13,2013-07-24 09:41:00,
2013-07-24 05:46:00,72.1,71.8,29.85,West,272,2.0,5.0,99,0.00,,,0.00,Wunderground v.1.13,2013-07-24 09:46:00,
2013-07-24 05:52:00,72.1,71.8,29.85,West,272,2.0,3.0,99,0.00,,,0.00,Wunderground v.1.13,2013-07-24 09:52:00,
2013-07-24 05:57:00,72.0,71.7,29.85,West,272,2.0,3.0,99,0.00,,,0.00,Wunderground v.1.13,2013-07-24 09:57:00,
2013-07-24 06:03:00,72.0,71.7,29.85,West,271,2.0,7.0,99,0.00,,,0.00,Wunderground v.1.13,2013-07-24 10:03:00,
2013-07-24 06:08:00,71.9,71.6,29.85,West,260,3.0,4.0,99,0.00,,,0.00,Wunderground v.1.13,2013-07-24 10:08:00,
2013-07-24 06:14:00,71.9,71.6,29.85,West,261,3.0,6.0,99,0.00,,,0.00,Wunderground v.1.13,2013-07-24 10:14:00,
2013-07-24 06:19:00,71.8,71.5,29.85,West,259,3.0,4.0,99,0.00,,,0.00,Wunderground v.1.13,2013-07-24 10:19:00,
2013-07-24 06:24:00,71.8,71.5,29.86,West,259,3.0,4.0,99,0.00,,,0.00,Wunderground v.1.13,2013-07-24 10:24:00,
2013-07-24 06:30:00,71.8,71.5,29.86,West,261,3.0,3.0,99,0.00,,,0.00,Wunderground v.1.13,2013-07-24 10:30:00,
2013-07-24 06:35:00,71.8,71.5,29.86,West,261,1.0,1.0,99,0.00,,,0.00,Wunderground v.1.13,2013-07-24 10:35:00,
2013-07-24 06:40:00,71.8,71.5,29.86,West,261,1.0,1.0,99,0.00,,,0.00,Wunderground v.1.13,2013-07-24 10:40:00,
2013-07-24 06:46:00,71.8,71.5,29.86,West,261,1.0,1.0,99,0.00,,,0.00,Wunderground v.1.13,2013-07-24 10:46:00,
2013-07-24 06:51:00,71.8,71.5,29.87,West,261,1.0,3.0,99,0.00,,,0.00,Wunderground v.1.13,2013-07-24 10:51:00,
2013-07-24 06:57:00,71.8,71.5,29.87,West,261,2.0,2.0,99,0.00,,,0.00,Wunderground v.1.13,2013-07-24 10:57:00,
2013-07-24 07:03:00,71.8,71.5,29.87,West,261,2.0,5.0,99,0.00,,,0.00,Wunderground v.1.13,2013-07-24 11:03:00,
2013-07-24 07:08:00,71.8,71.5,29.87,West,261,3.0,6.0,99,0.00,,,0.00,Wunderground v.1.13,2013-07-24 11:08:00,
2013-07-24 07:14:00,71.8,71.5,29.87,West,261,2.0,5.0,99,0.00,,,0.00,Wunderground v.1.13,2013-07-24 11:14:00,
2013-07-24 07:17:00,71.8,71.5,29.88,West,261,2.0,2.0,99,0.00,,,0.00,Wunderground v.1.13,2013-07-24 11:17:00,
2013-07-24 07:22:00,71.8,71.5,29.88,West,261,2.0,4.0,99,0.00,,,0.00,Wunderground v.1.13,2013-07-24 11:22:00,
2013-07-24 07:28:00,71.9,71.6,29.87,West,261,1.0,2.0,99,0.00,,,0.00,Wunderground v.1.13,2013-07-24 11:28:00,
2013-07-24 07:34:00,71.9,71.6,29.87,West,261,1.0,4.0,99,0.00,,,0.00,Wunderground v.1.13,2013-07-24 11:34:00,
2013-07-24 07:39:00,72.0,71.7,29.88,West,261,1.0,3.0,99,0.00,,,0.00,Wunderground v.1.13,2013-07-24 11:39:00,
2013-07-24 07:45:00,72.1,71.8,29.87,West,261,2.0,2.0,99,0.00,,,0.00,Wunderground v.1.13,2013-07-24 11:45:00,
2013-07-24 07:51:00,72.1,71.8,29.88,West,261,2.0,3.0,99,0.00,,,0.00,Wunderground v.1.13,2013-07-24 11:51:00,
2013-07-24 07:56:00,72.2,71.9,29.88,West,261,2.0,4.0,99,0.00,,,0.00,Wunderground v.1.13,2013-07-24 11:56:00,
2013-07-24 08:02:00,72.3,72.0,29.88,West,261,2.0,5.0,99,0.00,,,0.00,Wunderground v.1.13,2013-07-24 12:02:00,
2013-07-24 08:08:00,72.2,71.9,29.89,West,261,3.0,5.0,99,0.00,,,0.00,Wunderground v.1.13,2013-07-24 12:08:00,
2013-07-24 08:13:00,72.2,71.9,29.88,West,260,2.0,3.0,99,0.00,,,0.00,Wunderground v.1.13,2013-07-24 12:13:00,
2013-07-24 08:19:00,72.3,72.0,29.88,West,260,1.0,3.0,99,0.00,,,0.00,Wunderground v.1.13,2013-07-24 12:19:00,
2013-07-24 08:24:00,72.3,72.0,29.88,West,259,2.0,3.0,99,0.00,,,0.00,Wunderground v.1.13,2013-07-24 12:24:00,
2013-07-24 08:30:00,72.4,72.1,29.88,West,259,1.0,3.0,99,0.00,,,0.00,Wunderground v.1.13,2013-07-24 12:30:00,
2013-07-24 08:36:00,72.4,72.1,29.88,West,259,1.0,5.0,99,0.00,,,0.00,Wunderground v.1.13,2013-07-24 12:36:00,
2013-07-24 08:42:00,72.5,72.2,29.88,West,259,2.0,5.0,99,0.00,,,0.00,Wunderground v.1.13,2013-07-24 12:42:00,
2013-07-24 08:48:00,72.5,72.2,29.89,West,259,4.0,5.0,99,0.00,,,0.00,Wunderground v.1.13,2013-07-24 12:48:00,
2013-07-24 08:53:00,72.7,72.4,29.88,West,260,3.0,4.0,99,0.00,,,0.00,Wunderground v.1.13,2013-07-24 12:53:00,
2013-07-24 08:59:00,73.0,72.7,29.88,West,260,2.0,3.0,99,0.00,,,0.00,Wunderground v.1.13,2013-07-24 12:59:00,
2013-07-24 09:04:00,73.3,73.0,29.88,West,260,2.0,5.0,99,0.00,,,0.00,Wunderground v.1.13,2013-07-24 13:04:00,
2013-07-24 09:10:00,73.5,73.2,29.89,West,260,1.0,1.0,99,0.00,,,0.00,Wunderground v.1.13,2013-07-24 13:10:00,
2013-07-24 09:15:00,73.5,73.2,29.88,West,260,1.0,1.0,99,0.00,,,0.00,Wunderground v.1.13,2013-07-24 13:15:00,
2013-07-24 09:20:00,73.5,72.9,29.89,West,261,3.0,5.0,98,0.00,,,0.00,Wunderground v.1.13,2013-07-24 13:20:00,
2013-07-24 09:25:00,73.5,72.9,29.89,West,261,3.0,3.0,98,0.00,,,0.00,Wunderground v.1.13,2013-07-24 13:25:00,
2013-07-24 09:31:00,73.6,73.0,29.89,West,266,4.0,6.0,98,0.00,,,0.00,Wunderground v.1.13,2013-07-24 13:31:00,
2013-07-24 09:36:00,73.6,73.0,29.89,West,266,3.0,3.0,98,0.00,,,0.00,Wunderground v.1.13,2013-07-24 13:36:00,
2013-07-24 09:42:00,73.8,73.2,29.89,West,266,2.0,4.0,98,0.00,,,0.00,Wunderground v.1.13,2013-07-24 13:42:00,
2013-07-24 09:48:00,73.9,73.0,29.89,West,266,2.0,3.0,97,0.00,,,0.00,Wunderground v.1.13,2013-07-24 13:48:00,
2013-07-24 09:54:00,74.2,73.3,29.89,West,266,1.0,2.0,97,0.00,,,0.00,Wunderground v.1.13,2013-07-24 13:54:00,
2013-07-24 09:59:00,74.4,73.5,29.89,West,266,1.0,3.0,97,0.00,,,0.00,Wunderground v.1.13,2013-07-24 13:59:00,
2013-07-24 10:04:00,74.8,73.9,29.90,West,266,1.0,2.0,97,0.00,,,0.00,Wunderground v.1.13,2013-07-24 14:04:00,
2013-07-24 10:10:00,75.1,73.9,29.89,West,266,1.0,2.0,96,0.00,,,0.00,Wunderground v.1.13,2013-07-24 14:10:00,
2013-07-24 10:15:00,75.4,73.9,29.90,West,266,1.0,4.0,95,0.00,,,0.00,Wunderground v.1.13,2013-07-24 14:15:00,
2013-07-24 10:21:00,75.6,73.8,29.90,West,267,3.0,4.0,94,0.00,,,0.00,Wunderground v.1.13,2013-07-24 14:21:00,
2013-07-24 10:27:00,76.0,74.1,29.90,West,266,3.0,4.0,94,0.00,,,0.00,Wunderground v.1.13,2013-07-24 14:27:00,
2013-07-24 10:33:00,77.1,74.6,29.90,West,269,2.0,5.0,92,0.00,,,0.00,Wunderground v.1.13,2013-07-24 14:33:00,
2013-07-24 10:38:00,77.7,74.5,29.90,West,269,2.0,5.0,90,0.00,,,0.00,Wunderground v.1.13,2013-07-24 14:38:00,
2013-07-24 10:44:00,78.2,74.7,29.90,West,269,1.0,4.0,89,0.00,,,0.00,Wunderground v.1.13,2013-07-24 14:44:00,
2013-07-24 10:49:00,78.3,74.1,29.89,West,269,1.0,2.0,87,0.00,,,0.00,Wunderground v.1.13,2013-07-24 14:49:00,
2013-07-24 10:55:00,78.5,74.0,29.89,West,269,1.0,3.0,86,0.00,,,0.00,Wunderground v.1.13,2013-07-24 14:55:00,
2013-07-24 11:00:00,78.7,74.5,29.89,West,269,2.0,2.0,87,0.00,,,0.00,Wunderground v.1.13,2013-07-24 15:00:00,
2013-07-24 11:06:00,78.9,74.4,29.89,West,269,2.0,4.0,86,0.00,,,0.00,Wunderground v.1.13,2013-07-24 15:06:00,
2013-07-24 11:12:00,79.0,74.5,29.89,West,269,2.0,3.0,86,0.00,,,0.00,Wunderground v.1.13,2013-07-24 15:12:00,
2013-07-24 11:17:00,79.1,74.5,29.89,West,269,2.0,4.0,86,0.00,,,0.00,Wunderground v.1.13,2013-07-24 15:17:00,
2013-07-24 11:22:00,79.0,74.1,29.89,West,269,3.0,5.0,85,0.00,,,0.00,Wunderground v.1.13,2013-07-24 15:22:00,
2013-07-24 11:28:00,79.2,74.6,29.89,West,269,3.0,3.0,86,0.00,,,0.00,Wunderground v.1.13,2013-07-24 15:28:00,
2013-07-24 11:34:00,79.3,74.4,29.89,West,269,1.0,3.0,85,0.00,,,0.00,Wunderground v.1.13,2013-07-24 15:34:00,
2013-07-24 11:40:00,79.4,74.1,29.89,West,269,2.0,2.0,84,0.00,,,0.00,Wunderground v.1.13,2013-07-24 15:40:00,
2013-07-24 11:45:00,79.5,74.2,29.89,West,273,3.0,3.0,84,0.00,,,0.00,Wunderground v.1.13,2013-07-24 15:45:00,
2013-07-24 11:50:00,79.7,74.8,29.89,West,273,3.0,5.0,85,0.00,,,0.00,Wunderground v.1.13,2013-07-24 15:50:00,
2013-07-24 11:55:00,79.8,74.5,29.89,West,272,3.0,3.0,84,0.00,,,0.00,Wunderground v.1.13,2013-07-24 15:55:00,
2013-07-24 12:00:00,79.9,74.6,29.89,West,272,3.0,3.0,84,0.00,,,0.00,Wunderground v.1.13,2013-07-24 16:00:00,
2013-07-24 12:05:00,80.0,74.7,29.89,West,272,3.0,5.0,84,0.00,,,0.00,Wunderground v.1.13,2013-07-24 16:05:00,
2013-07-24 12:11:00,80.0,74.7,29.88,West,272,3.0,3.0,84,0.00,,,0.00,Wunderground v.1.13,2013-07-24 16:11:00,
2013-07-24 12:17:00,79.8,74.5,29.88,West,272,3.0,6.0,84,0.00,,,0.00,Wunderground v.1.13,2013-07-24 16:17:00,
2013-07-24 12:23:00,80.3,75.0,29.88,West,276,4.0,6.0,84,0.00,,,0.00,Wunderground v.1.13,2013-07-24 16:23:00,
2013-07-24 12:28:00,80.9,74.9,29.88,West,275,5.0,6.0,82,0.00,,,0.00,Wunderground v.1.13,2013-07-24 16:28:00,
2013-07-24 12:34:00,81.1,74.7,29.88,West,261,5.0,5.0,81,0.00,,,0.00,Wunderground v.1.13,2013-07-24 16:34:00,
2013-07-24 12:40:00,81.9,75.1,29.88,West,275,3.0,6.0,80,0.00,,,0.00,Wunderground v.1.13,2013-07-24 16:40:00,
2013-07-24 12:45:00,82.4,74.8,29.89,WNW,284,3.0,5.0,78,0.00,,,0.00,Wunderground v.1.13,2013-07-24 16:45:00,
2013-07-24 12:50:00,82.7,75.1,29.89,WNW,283,4.0,4.0,78,0.00,,,0.00,Wunderground v.1.13,2013-07-24 16:50:00,
2013-07-24 12:56:00,82.8,75.2,29.89,West,281,3.0,3.0,78,0.00,,,0.00,Wunderground v.1.13,2013-07-24 16:56:00,
2013-07-24 13:01:00,82.7,75.1,29.88,West,274,3.0,6.0,78,0.00,,,0.00,Wunderground v.1.13,2013-07-24 17:01:00,
2013-07-24 13:07:00,82.2,74.7,29.88,West,269,4.0,6.0,78,0.00,,,0.00,Wunderground v.1.13,2013-07-24 17:07:00,
2013-07-24 13:13:00,82.1,74.9,29.88,West,269,3.0,4.0,79,0.00,,,0.00,Wunderground v.1.13,2013-07-24 17:13:00,
2013-07-24 13:18:00,82.2,74.7,29.88,West,271,4.0,6.0,78,0.00,,,0.00,Wunderground v.1.13,2013-07-24 17:18:00,
2013-07-24 13:24:00,82.0,74.5,29.88,WSW,256,5.0,7.0,78,0.00,,,0.00,Wunderground v.1.13,2013-07-24 17:24:00,
2013-07-24 13:29:00,81.7,74.2,29.88,West,273,6.0,7.0,78,0.00,,,0.00,Wunderground v.1.13,2013-07-24 17:29:00,
2013-07-24 13:34:00,81.7,74.5,29.88,West,263,5.0,6.0,79,0.00,,,0.00,Wunderground v.1.13,2013-07-24 17:34:00,
2013-07-24 13:40:00,81.8,74.3,29.88,West,275,4.0,4.0,78,0.00,,,0.00,Wunderground v.1.13,2013-07-24 17:40:00,
2013-07-24 13:45:00,81.9,74.4,29.88,WSW,250,4.0,4.0,78,0.00,,,0.00,Wunderground v.1.13,2013-07-24 17:45:00,
2013-07-24 13:51:00,82.3,75.1,29.87,WSW,250,3.0,3.0,79,0.00,,,0.00,Wunderground v.1.13,2013-07-24 17:51:00,
2013-07-24 13:57:00,82.4,74.8,29.88,West,261,3.0,8.0,78,0.00,,,0.00,Wunderground v.1.13,2013-07-24 17:57:00,
2013-07-24 14:02:00,82.3,74.0,29.87,West,259,4.0,4.0,76,0.00,,,0.00,Wunderground v.1.13,2013-07-24 18:02:00,
2013-07-24 14:08:00,82.2,73.5,29.87,WSW,238,5.0,8.0,75,0.00,,,0.00,Wunderground v.1.13,2013-07-24 18:08:00,
2013-07-24 14:14:00,82.7,73.6,29.87,SW,234,5.0,10.0,74,0.00,,,0.00,Wunderground v.1.13,2013-07-24 18:14:00,
2013-07-24 14:19:00,83.6,74.0,29.87,West,274,5.0,9.0,73,0.00,,,0.00,Wunderground v.1.13,2013-07-24 18:19:00,
2013-07-24 14:24:00,84.3,73.9,29.86,West,265,5.0,7.0,71,0.00,,,0.00,Wunderground v.1.13,2013-07-24 18:24:00,
2013-07-24 14:29:00,85.2,74.7,29.86,West,281,4.0,9.0,71,0.00,,,0.00,Wunderground v.1.13,2013-07-24 18:29:00,
2013-07-24 14:34:00,85.8,73.1,29.86,West,278,4.0,6.0,66,0.00,,,0.00,Wunderground v.1.13,2013-07-24 18:34:00,
2013-07-24 14:39:00,86.5,73.8,29.86,West,273,4.0,5.0,66,0.00,,,0.00,Wunderground v.1.13,2013-07-24 18:39:00,
2013-07-24 14:44:00,86.8,74.1,29.86,WNW,288,3.0,9.0,66,0.00,,,0.00,Wunderground v.1.13,2013-07-24 18:44:00,
2013-07-24 14:50:00,86.7,74.0,29.86,WNW,290,3.0,4.0,66,0.00,,,0.00,Wunderground v.1.13,2013-07-24 18:50:00,
2013-07-24 14:56:00,86.6,74.3,29.86,WNW,288,4.0,7.0,67,0.00,,,0.00,Wunderground v.1.13,2013-07-24 18:56:00,
2013-07-24 15:01:00,86.1,73.0,29.86,WNW,284,5.0,5.0,65,0.00,,,0.00,Wunderground v.1.13,2013-07-24 19:01:00,
2013-07-24 15:07:00,85.5,73.3,29.85,WNW,283,6.0,6.0,67,0.00,,,0.00,Wunderground v.1.13,2013-07-24 19:07:00,
2013-07-24 15:13:00,85.8,74.9,29.85,West,281,5.0,5.0,70,0.00,,,0.00,Wunderground v.1.13,2013-07-24 19:13:00,
2013-07-24 15:19:00,86.1,73.9,29.85,WNW,284,5.0,7.0,67,0.00,,,0.00,Wunderground v.1.13,2013-07-24 19:19:00,
2013-07-24 15:25:00,85.6,73.8,29.85,WNW,282,5.0,6.0,68,0.00,,,0.00,Wunderground v.1.13,2013-07-24 19:25:00,
2013-07-24 15:31:00,85.2,73.9,29.85,West,281,4.0,6.0,69,0.00,,,0.00,Wunderground v.1.13,2013-07-24 19:31:00,
2013-07-24 15:36:00,84.9,74.4,29.85,WNW,285,4.0,9.0,71,0.00,,,0.00,Wunderground v.1.13,2013-07-24 19:36:00,
2013-07-24 15:42:00,85.0,74.1,29.85,WSW,250,5.0,7.0,70,0.00,,,0.00,Wunderground v.1.13,2013-07-24 19:42:00,
2013-07-24 15:48:00,84.9,74.9,29.85,WSW,256,4.0,5.0,72,0.00,,,0.00,Wunderground v.1.13,2013-07-24 19:48:00,
2013-07-24 15:54:00,84.8,74.3,29.85,West,267,3.0,6.0,71,0.00,,,0.00,Wunderground v.1.13,2013-07-24 19:54:00,
2013-07-24 15:59:00,84.6,74.2,29.85,West,275,4.0,7.0,71,0.00,,,0.00,Wunderground v.1.13,2013-07-24 19:59:00,
2013-07-24 16:05:00,84.1,74.1,29.85,West,275,5.0,5.0,72,0.00,,,0.00,Wunderground v.1.13,2013-07-24 20:05:00,
2013-07-24 16:11:00,83.6,74.0,29.85,West,269,5.0,5.0,73,0.00,,,0.00,Wunderground v.1.13,2013-07-24 20:11:00,
2013-07-24 16:17:00,83.6,75.2,29.85,West,277,4.0,4.0,76,0.00,,,0.00,Wunderground v.1.13,2013-07-24 20:17:00,
2013-07-24 16:23:00,84.0,74.0,29.85,West,274,5.0,7.0,72,0.00,,,0.00,Wunderground v.1.13,2013-07-24 20:23:00,
2013-07-24 16:28:00,83.8,74.2,29.85,West,268,6.0,6.0,73,0.00,,,0.00,Wunderground v.1.13,2013-07-24 20:28:00,
2013-07-24 16:33:00,83.4,74.2,29.85,West,269,5.0,6.0,74,0.00,,,0.00,Wunderground v.1.13,2013-07-24 20:33:00,
2013-07-24 16:39:00,83.0,73.9,29.84,West,271,4.0,5.0,74,0.00,,,0.00,Wunderground v.1.13,2013-07-24 20:39:00,
2013-07-24 16:44:00,82.8,73.7,29.84,West,277,4.0,9.0,74,0.00,,,0.00,Wunderground v.1.13,2013-07-24 20:44:00,
2013-07-24 16:50:00,82.6,73.1,29.84,WNW,286,5.0,5.0,73,0.00,,,0.00,Wunderground v.1.13,2013-07-24 20:50:00,
2013-07-24 16:56:00,82.4,72.5,29.84,WNW,293,5.0,6.0,72,0.00,,,0.00,Wunderground v.1.13,2013-07-24 20:56:00,
2013-07-24 17:01:00,82.5,72.6,29.84,WNW,292,4.0,5.0,72,0.00,,,0.00,Wunderground v.1.13,2013-07-24 21:01:00,
2013-07-24 17:07:00,82.5,73.0,29.84,WNW,292,3.0,4.0,73,0.00,,,0.00,Wunderground v.1.13,2013-07-24 21:07:00,
2013-07-24 17:12:00,82.7,73.2,29.84,WNW,292,3.0,3.0,73,0.00,,,0.00,Wunderground v.1.13,2013-07-24 21:12:00,
2013-07-24 17:17:00,83.1,72.7,29.84,WNW,292,2.0,3.0,71,0.00,,,0.00,Wunderground v.1.13,2013-07-24 21:17:00,
2013-07-24 17:23:00,83.6,72.8,29.84,WNW,292,1.0,2.0,70,0.00,,,0.00,Wunderground v.1.13,2013-07-24 21:23:00,
2013-07-24 17:29:00,84.1,71.1,29.84,North,355,3.0,5.0,65,0.00,,,0.00,Wunderground v.1.13,2013-07-24 21:29:00,
2013-07-24 17:35:00,84.5,70.5,29.84,North,360,5.0,5.0,63,0.00,,,0.00,Wunderground v.1.13,2013-07-24 21:35:00,
2013-07-24 17:40:00,84.6,70.6,29.84,NNW,332,4.0,4.0,63,0.00,,,0.00,Wunderground v.1.13,2013-07-24 21:40:00,
2013-07-24 17:46:00,85.0,70.0,29.84,NNW,328,4.0,6.0,61,0.00,,,0.00,Wunderground v.1.13,2013-07-24 21:46:00,
2013-07-24 17:52:00,85.3,69.3,29.84,NW,308,4.0,5.0,59,0.00,,,0.00,Wunderground v.1.13,2013-07-24 21:52:00,
2013-07-24 17:57:00,85.5,69.5,29.84,NW,308,4.0,6.0,59,0.00,,,0.00,Wunderground v.1.13,2013-07-24 21:57:00,
2013-07-24 18:02:00,85.5,69.0,29.84,NW,306,5.0,5.0,58,0.00,,,0.00,Wunderground v.1.13,2013-07-24 22:02:00,
2013-07-24 18:07:00,85.6,69.1,29.84,NW,306,4.0,5.0,58,0.00,,,0.00,Wunderground v.1.13,2013-07-24 22:07:00,
2013-07-24 18:13:00,85.6,70.1,29.84,NW,308,4.0,4.0,60,0.00,,,0.00,Wunderground v.1.13,2013-07-24 22:13:00,
2013-07-24 18:19:00,85.3,71.7,29.84,NW,316,4.0,4.0,64,0.00,,,0.00,Wunderground v.1.13,2013-07-24 22:19:00,
2013-07-24 18:25:00,84.5,71.9,29.84,NW,325,2.0,2.0,66,0.00,,,0.00,Wunderground v.1.13,2013-07-24 22:25:00,
2013-07-24 18:30:00,83.6,71.5,29.84,NNW,336,3.0,3.0,67,0.00,,,0.00,Wunderground v.1.13,2013-07-24 22:30:00,
2013-07-24 18:36:00,83.1,71.4,29.84,NNW,346,2.0,4.0,68,0.00,,,0.00,Wunderground v.1.13,2013-07-24 22:36:00,
2013-07-24 18:41:00,82.9,71.3,29.84,North,350,2.0,3.0,68,0.00,,,0.00,Wunderground v.1.13,2013-07-24 22:41:00,
2013-07-24 18:47:00,82.4,70.8,29.84,North,5,4.0,7.0,68,0.00,,,0.00,Wunderground v.1.13,2013-07-24 22:47:00,
2013-07-24 18:52:00,81.9,70.3,29.84,North,5,5.0,5.0,68,0.00,,,0.00,Wunderground v.1.13,2013-07-24 22:52:00,
2013-07-24 18:58:00,81.6,70.0,29.84,North,5,3.0,4.0,68,0.00,,,0.00,Wunderground v.1.13,2013-07-24 22:58:00,
2013-07-24 19:03:00,81.5,69.9,29.84,North,5,2.0,4.0,68,0.00,,,0.00,Wunderground v.1.13,2013-07-24 23:03:00,
2013-07-24 19:08:00,81.5,69.9,29.85,North,5,2.0,2.0,68,0.00,,,0.00,Wunderground v.1.13,2013-07-24 23:08:00,
2013-07-24 19:14:00,81.5,69.9,29.85,North,5,2.0,7.0,68,0.00,,,0.00,Wunderground v.1.13,2013-07-24 23:14:00,
2013-07-24 19:19:00,81.3,69.7,29.85,North,5,2.0,3.0,68,0.00,,,0.00,Wunderground v.1.13,2013-07-24 23:19:00,
2013-07-24 19:24:00,81.1,69.5,29.85,North,5,3.0,5.0,68,0.00,,,0.00,Wunderground v.1.13,2013-07-24 23:24:00,
2013-07-24 19:29:00,81.0,68.6,29.86,North,5,3.0,7.0,66,0.00,,,0.00,Wunderground v.1.13,2013-07-24 23:29:00,
2013-07-24 19:35:00,80.8,68.4,29.86,North,9,4.0,4.0,66,0.00,,,0.00,Wunderground v.1.13,2013-07-24 23:35:00,
2013-07-24 19:41:00,80.7,67.8,29.86,North,9,3.0,4.0,65,0.00,,,0.00,Wunderground v.1.13,2013-07-24 23:41:00,
2013-07-24 19:46:00,80.4,68.0,29.86,North,9,3.0,4.0,66,0.00,,,0.00,Wunderground v.1.13,2013-07-24 23:46:00,
2013-07-24 19:52:00,80.0,68.1,29.87,North,9,2.0,2.0,67,0.00,,,0.00,Wunderground v.1.13,2013-07-24 23:52:00,
2013-07-24 19:58:00,79.9,68.0,29.87,North,9,1.0,1.0,67,0.00,,,0.00,Wunderground v.1.13,2013-07-24 23:58:00,
2013-07-24 20:04:00,79.9,68.4,29.87,North,9,0.0,1.0,68,0.00,,,0.00,Wunderground v.1.13,2013-07-25 00:04:00,
2013-07-24 20:10:00,79.9,68.4,29.87,North,9,0.0,0.0,68,0.00,,,0.00,Wunderground v.1.13,2013-07-25 00:10:00,
2013-07-24 20:15:00,79.9,68.4,29.88,North,9,0.0,0.0,68,0.00,,,0.00,Wunderground v.1.13,2013-07-25 00:15:00,
2013-07-24 20:21:00,79.8,68.3,29.88,North,9,0.0,0.0,68,0.00,,,0.00,Wunderground v.1.13,2013-07-25 00:21:00,
2013-07-24 20:27:00,79.9,71.3,29.88,North,9,0.0,0.0,75,0.00,,,0.00,Wunderground v.1.13,2013-07-25 00:27:00,
2013-07-24 20:32:00,79.8,71.2,29.88,North,9,0.0,0.0,75,0.00,,,0.00,Wunderground v.1.13,2013-07-25 00:32:00,
2013-07-24 20:38:00,79.1,71.3,29.88,North,9,0.0,0.0,77,0.00,,,0.00,Wunderground v.1.13,2013-07-25 00:38:00,
2013-07-24 20:44:00,78.7,71.3,29.88,North,9,0.0,0.0,78,0.00,,,0.00,Wunderground v.1.13,2013-07-25 00:44:00,
2013-07-24 20:49:00,78.0,70.6,29.88,North,9,0.0,0.0,78,0.00,,,0.00,Wunderground v.1.13,2013-07-25 00:49:00,
2013-07-24 20:54:00,77.5,70.5,29.88,North,9,0.0,0.0,79,0.00,,,0.00,Wunderground v.1.13,2013-07-25 00:54:00,
2013-07-24 20:59:00,76.9,70.3,29.88,North,9,0.0,1.0,80,0.00,,,0.00,Wunderground v.1.13,2013-07-25 00:59:00,
2013-07-24 21:05:00,76.2,69.2,29.88,North,9,0.0,0.0,79,0.00,,,0.00,Wunderground v.1.13,2013-07-25 01:05:00,
2013-07-24 21:10:00,75.7,69.1,29.89,North,9,1.0,1.0,80,0.00,,,0.00,Wunderground v.1.13,2013-07-25 01:10:00,
2013-07-24 21:16:00,75.0,67.7,29.89,North,9,2.0,2.0,78,0.00,,,0.00,Wunderground v.1.13,2013-07-25 01:16:00,
2013-07-24 21:22:00,74.7,67.4,29.89,North,9,2.0,3.0,78,0.00,,,0.00,Wunderground v.1.13,2013-07-25 01:22:00,
2013-07-24 21:28:00,74.7,67.4,29.89,North,9,1.0,1.0,78,0.00,,,0.00,Wunderground v.1.13,2013-07-25 01:28:00,
2013-07-24 21:33:00,74.8,67.5,29.89,North,9,1.0,3.0,78,0.00,,,0.00,Wunderground v.1.13,2013-07-25 01:33:00,
2013-07-24 21:39:00,74.8,67.5,29.89,North,9,0.0,1.0,78,0.00,,,0.00,Wunderground v.1.13,2013-07-25 01:39:00,
2013-07-24 21:45:00,74.8,67.5,29.89,North,9,0.0,0.0,78,0.00,,,0.00,Wunderground v.1.13,2013-07-25 01:45:00,
2013-07-24 21:50:00,74.7,67.8,29.89,North,9,0.0,1.0,79,0.00,,,0.00,Wunderground v.1.13,2013-07-25 01:50:00,
2013-07-24 21:56:00,74.6,67.7,29.89,North,9,0.0,0.0,79,0.00,,,0.00,Wunderground v.1.13,2013-07-25 01:56:00,
2013-07-24 22:01:00,74.5,67.6,29.90,North,9,0.0,0.0,79,0.00,,,0.00,Wunderground v.1.13,2013-07-25 02:01:00,
2013-07-24 22:07:00,74.4,67.5,29.90,North,9,0.0,0.0,79,0.00,,,0.00,Wunderground v.1.13,2013-07-25 02:07:00,
2013-07-24 22:12:00,74.3,67.7,29.90,North,9,0.0,0.0,80,0.00,,,0.00,Wunderground v.1.13,2013-07-25 02:12:00,
2013-07-24 22:17:00,74.0,67.8,29.90,North,9,0.0,0.0,81,0.00,,,0.00,Wunderground v.1.13,2013-07-25 02:17:00,
2013-07-24 22:22:00,73.6,67.8,29.90,North,9,0.0,0.0,82,0.00,,,0.00,Wunderground v.1.13,2013-07-25 02:22:00,
2013-07-24 22:27:00,73.2,67.7,29.90,North,9,0.0,0.0,83,0.00,,,0.00,Wunderground v.1.13,2013-07-25 02:27:00,
2013-07-24 22:33:00,72.6,67.5,29.90,North,9,0.0,0.0,84,0.00,,,0.00,Wunderground v.1.13,2013-07-25 02:33:00,
2013-07-24 22:39:00,72.0,67.2,29.90,North,9,0.0,0.0,85,0.00,,,0.00,Wunderground v.1.13,2013-07-25 02:39:00,
2013-07-24 22:45:00,71.4,67.0,29.90,North,9,0.0,0.0,86,0.00,,,0.00,Wunderground v.1.13,2013-07-25 02:45:00,
2013-07-24 22:50:00,71.0,66.9,29.90,North,9,0.0,0.0,87,0.00,,,0.00,Wunderground v.1.13,2013-07-25 02:50:00,
2013-07-24 22:56:00,70.6,66.5,29.90,North,9,0.0,0.0,87,0.00,,,0.00,Wunderground v.1.13,2013-07-25 02:56:00,
2013-07-24 23:01:00,70.3,66.6,29.90,North,9,0.0,0.0,88,0.00,,,0.00,Wunderground v.1.13,2013-07-25 03:01:00,
2013-07-24 23:08:00,69.9,66.2,29.90,North,9,0.0,0.0,88,0.00,,,0.00,Wunderground v.1.13,2013-07-25 03:08:00,
2013-07-24 23:13:00,69.6,66.2,29.91,North,9,0.0,0.0,89,0.00,,,0.00,Wunderground v.1.13,2013-07-25 03:13:00,
2013-07-24 23:18:00,69.4,66.3,29.91,North,9,0.0,0.0,90,0.00,,,0.00,Wunderground v.1.13,2013-07-25 03:18:00,
2013-07-24 23:24:00,69.1,66.0,29.91,North,9,0.0,0.0,90,0.00,,,0.00,Wunderground v.1.13,2013-07-25 03:24:00,
2013-07-24 23:30:00,68.9,65.8,29.91,North,9,0.0,0.0,90,0.00,,,0.00,Wunderground v.1.13,2013-07-25 03:30:00,
2013-07-24 23:35:00,68.8,66.1,29.91,North,9,0.0,0.0,91,0.00,,,0.00,Wunderground v.1.13,2013-07-25 03:35:00,
2013-07-24 23:42:00,68.6,65.9,29.91,North,9,0.0,0.0,91,0.00,,,0.00,Wunderground v.1.13,2013-07-25 03:42:00,
2013-07-24 23:48:00,68.5,65.8,29.91,North,9,0.0,0.0,91,0.00,,,0.00,Wunderground v.1.13,2013-07-25 03:48:00,
2013-07-24 23:54:00,68.5,66.1,29.91,North,9,0.0,0.0,92,0.00,,,0.00,Wunderground v.1.13,2013-07-25 03:54:00,
2013-07-24 23:59:00,68.3,65.9,29.91,North,9,0.0,0.0,92,0.00,,,0.00,Wunderground v.1.13,2013-07-25 03:59:00,